User: anonymous   Login
Location: Allaines
(49.9632°N, 2.9458°E)
Time: 11:22:16
(UTC+00:00)
Language:

Cosmos 2154 Rocket - Orbit

View from above orbital plane
View from above orbital plane
View from above satellite
View from above satellite

Ground track
Ground track

The orbit data is extracted from the following two-line orbital elements,

1 21667U 91059B   20184.77920421 +.00000012 +00000-0 -36438-5 0  9996
2 21667 082.9063 261.3227 0021555 038.5901 079.8090 13.75103023448193
Epoch (UTC): 02 July 2020 18:42:03
Eccentricity: 0.0021555
inclination: 82.9063°
perigee height: 965 km
apogee height: 997 km
right ascension of ascending node: 261.3227°
argument of perigee: 38.5901°
revolutions per day: 13.75103023
mean anomaly at epoch: 79.8090°
orbit number at epoch: 44819

The dashed part of the orbit path shows where the satellite is in the earth's shadow,  

DLR